This demonstration page uses our WeatherBlox Daily Observations layout. Learn more.

Left ArrowRight Arrow

Hourly Observations for June 23, 2019

Temp ( °F °C ) Dew Point ( °F °C ) Humidity (%) Winds ( mph kmh ) Pressure ( in mb ) Visibility ( mi km ) Precip ( " mm )
12:27 am 00:27 Cloudy with Light Rain 61 16 57 14 88 88 NNW 10 17 29.90 1012 10 16 0.00 0.00
12:45 am 00:45 Cloudy 61 16 57 14 88 88 NNW 9 15 29.90 1012 10 16 0.00 0.03
12:56 am 00:56 Cloudy 60 15.6 57 13.9 90 90 N 10 17 29.90 1013 10 16 0.00 0.03
1:24 am 01:24 Cloudy 61 16 57 14 88 88 NNW 8 13 29.89 1012 10 16 0.00 0.00
1:33 am 01:33 Cloudy 61 16 57 14 88 88 NNW 9 15 29.89 1012 10 16 0.00 0.00
1:49 am 01:49 Cloudy 61 16 57 14 88 88 NNW 9 15 29.88 1012 10 16 0.00 0.00
1:56 am 01:56 Cloudy 60 15.6 57 13.9 90 90 NW 10 17 29.89 1012 10 16 0.00 0.00
2:31 am 02:31 Cloudy 59 15 55 13 88 88 NNW 9 15 29.87 1011 10 16 0.00 0.00
2:47 am 02:47 Cloudy 59 15 57 14 94 94 NNW 10 17 29.87 1011 10 16 0.00 0.00
2:56 am 02:56 Cloudy 59 15 56 13.3 90 90 NW 10 17 29.88 1012 10 16 0.00 0.00
3:56 am 03:56 Cloudy 58 14.4 55 12.8 90 90 N 9 15 29.85 1011 10 16 0.00 0.00
4:05 am 04:05 Cloudy 57 14 55 13 94 94 N 12 19 29.83 1010 10 16 0.00 0.00
4:43 am 04:43 Cloudy 57 14 55 13 94 94 NW 13 20 29.82 1010 10 16 0.00 0.00
4:52 am 04:52 Cloudy 57 14 55 13 94 94 NW 10 17 29.83 1010 10 16 0.00 0.00
4:56 am 04:56 Cloudy 58 14.4 56 13.3 93 93 NW 10 17 29.83 1010 10 16 0.00 0.00
5:11 am 05:11 Cloudy 57 14 55 13 94 94 NNW 12 19 29.83 1010 10 16 0.00 0.00
5:56 am 05:56 Cloudy 58 14.4 56 13.3 93 93 NNW 10 17 29.85 1011 10 16 0.00 0.03
6:44 am 06:44 Cloudy 57 14 57 14 100 100 N 12 19 29.86 1011 8 13 0.00 0.00
6:56 am 06:56 Cloudy with Light Rain 58 14.4 57 13.9 97 97 N 12 19 29.86 1011 8 13 0.00 0.03
7:56 am 07:56 Cloudy 59 15 58 14.4 96 96 N 12 19 29.84 1010 10 16 0.00 0.03
8:53 am 08:53 Cloudy 61 16 57 14 88 88 N 12 19 29.82 1010 10 16 0.00 0.00
8:56 am 08:56 Cloudy 60 15.6 58 14.4 93 93 N 12 19 29.83 1010 10 16 0.00 0.00
9:30 am 09:30 Cloudy with Light Rain 61 16 59 15 94 94 NNW 13 20 29.81 1009 3 4 0.00 0.03
9:56 am 09:56 Cloudy with Light Rain 60 15.6 59 15 96 96 NNW 12 19 29.82 1010 2 3 0.00 0.03
10:12 am 10:12 Cloudy with Mist and Fog 61 16 59 15 94 94 NNW 12 19 29.80 1009 4 6 0.00 0.03
10:47 am 10:47 Cloudy 61 16 57 14 88 88 N 9 15 29.82 1010 10 16 0.00 0.03
10:56 am 10:56 Cloudy 61 16.1 58 14.4 90 90 NNW 12 19 29.83 1010 10 16 0.00 0.03
11:56 am 11:56 Cloudy 61 16.1 58 14.4 90 90 N 12 19 29.84 1011 10 16 0.00 0.00
12:46 pm 12:46 Cloudy 63 17 57 14 83 83 N 12 19 29.82 1010 10 16 0.00 0.00
12:56 pm 12:56 Cloudy 62 16.7 58 14.4 86 86 NNW 9 15 29.85 1011 10 16 0.00 0.00
1:56 pm 13:56 Cloudy 62 16.7 57 13.9 84 84 NNW 9 15 29.84 1011 10 16 0.00 0.00
2:56 pm 14:56 Cloudy 63 17.2 57 13.9 81 81 N 12 19 29.84 1010 10 16 0.00 0.00
3:56 pm 15:56 Cloudy 61 16.1 57 13.9 87 87 NNW 14 22 29.85 1011 10 16 0.00 0.00
4:46 pm 16:46 Cloudy with Light Rain 59 15 57 14 94 94 NNW 15 24 29.85 1011 3 5 0.00 0.03
4:56 pm 16:56 Cloudy with Light Rain 58 14.4 56 13.3 93 93 NNW 16 26 29.87 1012 7 11 0.00 0.03
5:05 pm 17:05 Cloudy 57 14 55 13 94 94 NNW 18 30 29.86 1011 10 16 0.00 0.03
5:21 pm 17:21 Cloudy with Light Rain 57 14 55 13 94 94 N 21 33 29.85 1011 6 10 0.00 0.00
5:56 pm 17:56 Cloudy 59 15 54 12.2 83 83 N 17 28 29.85 1011 10 16 0.00 0.03
6:56 pm 18:56 Cloudy 59 15 53 11.7 81 81 N 12 19 29.86 1011 10 16 0.00 0.00
7:03 pm 19:03 Cloudy 61 16 54 12 77 77 N 13 20 29.83 1010 10 16 0.00 0.00
7:56 pm 19:56 Mostly Sunny 60 15.6 53 11.7 78 78 NNW 14 22 29.86 1011 10 16 0.00 0.00
8:56 pm 20:56 Sunny 58 14.4 53 11.7 84 84 NW 8 13 29.85 1011 10 16 0.00 0.00
9:56 pm 21:56 Clear 56 13.3 52 11.1 87 87 WNW 8 13 29.87 1011 10 16 0.00 0.00
10:56 pm 22:56 Clear 54 12.2 51 10.6 90 90 WNW 7 11 29.88 1012 10 16 0.00 0.00
11:56 pm 23:56 Clear 54 12.2 51 10.6 90 90 WNW 7 11 29.87 1012 10 16 0.00 0.00

Powered by AerisWeather